| time (UTC) | temp C | wind direction | speed KPH | gust KPH | rain 1hr cm | rain 24hr cm | rain mn cm | humidity % | barometer mb |
| 20260507030726 | 10 | 173 | 1.6 | 4.8 | 0.00 | 0.86 | 0.86 | 99 | 1007.9 |
| 20260507030223 | 10 | 336 | 1.6 | 3.2 | 0.00 | 0.86 | 0.86 | 99 | 1007.9 |
| 20260507025720 | 10 | 329 | 0.0 | 1.6 | 0.00 | 0.86 | 0.86 | 99 | 1007.9 |
| 20260507025217 | 10 | 329 | 1.6 | 3.2 | 0.30 | 0.86 | 0.86 | 99 | 1007.9 |
| 20260507024716 | 10 | 312 | 3.2 | 3.2 | 0.13 | 0.84 | 0.84 | 99 | 1007.6 |
| 20260507024213 | 11 | 248 | 0.0 | 0.0 | 0.00 | 0.81 | 0.81 | 99 | 1007.9 |
| 20260507023708 | 11 | 218 | 0.0 | 0.0 | 0.18 | 0.81 | 0.81 | 99 | 1007.9 |
| 20260507023205 | 11 | 331 | 0.0 | 0.0 | 0.18 | 0.81 | 0.81 | 99 | 1007.9 |
| 20260507022702 | 11 | 331 | 0.0 | 0.0 | 0.18 | 0.79 | 0.79 | 99 | 1007.6 |
| 20260507022158 | 11 | 230 | 0.0 | 0.0 | 0.13 | 0.76 | 0.76 | 99 | 1007.9 |
| 20260507021654 | 11 | 202 | 0.0 | 0.0 | 0.13 | 0.76 | 0.76 | 99 | 1007.6 |
| 20260507021149 | 11 | 290 | 0.0 | 0.0 | 0.00 | 0.74 | 0.74 | 99 | 1007.9 |
| 20260507020649 | 11 | 288 | 0.0 | 0.0 | 0.00 | 0.74 | 0.74 | 99 | 1007.6 |
| 20260507020144 | 11 | 248 | 0.0 | 0.0 | 0.00 | 0.74 | 0.74 | 99 | 1007.6 |
| 20260507015643 | 11 | 312 | 0.0 | 0.0 | 0.00 | 0.74 | 0.74 | 99 | 1007.3 |
| 20260507015140 | 11 | 314 | 0.0 | 0.0 | 0.00 | 0.74 | 0.74 | 99 | 1007.6 |
| 20260507014636 | 12 | 311 | 0.0 | 0.0 | 0.00 | 0.74 | 0.74 | 99 | 1007.6 |
| 20260507014132 | 12 | 184 | 0.0 | 0.0 | 0.00 | 0.74 | 0.74 | 99 | 1007.6 |
| 20260507013629 | 12 | 333 | 0.0 | 0.0 | 0.00 | 0.74 | 0.74 | 99 | 1007.6 |
| 20260507013126 | 13 | 343 | 0.0 | 0.0 | 0.00 | 0.74 | 0.74 | 99 | 1007.6 |
| 20260507012624 | 13 | 336 | 0.0 | 0.0 | 0.00 | 0.74 | 0.74 | 99 | 1007.6 |
| 20260507012119 | 13 | 309 | 0.0 | 0.0 | 0.00 | 0.74 | 0.74 | 99 | 1007.9 |
| 20260507011618 | 13 | 237 | 0.0 | 0.0 | 0.00 | 0.74 | 0.74 | 99 | 1007.6 |
| 20260507011113 | 13 | 217 | 0.0 | 0.0 | 0.00 | 0.74 | 0.74 | 99 | 1007.6 |
| 20260507010608 | 13 | 296 | 0.0 | 0.0 | 0.00 | 0.74 | 0.74 | 99 | 1007.6 |
| 20260507010104 | 13 | 42 | 0.0 | 0.0 | 0.00 | 0.74 | 0.74 | 99 | 1007.6 |
| 20260507005602 | 13 | 190 | 0.0 | 0.0 | 0.00 | 0.74 | 0.74 | 99 | 1007.6 |
| 20260507005058 | 13 | 36 | 0.0 | 0.0 | 0.00 | 0.74 | 0.74 | 99 | 1007.6 |
| 20260507004555 | 13 | 49 | 0.0 | 0.0 | 0.00 | 0.74 | 0.74 | 99 | 1007.6 |
| 20260507004052 | 13 | 347 | 1.6 | 1.6 | 0.00 | 0.74 | 0.74 | 99 | 1007.3 |
| 20260507003548 | 13 | 101 | 0.0 | 1.6 | 0.00 | 0.74 | 0.74 | 99 | 1007.3 |
| 20260507003043 | 13 | 123 | 1.6 | 4.8 | 0.00 | 0.74 | 0.74 | 99 | 1007.6 |
| 20260507002540 | 13 | 107 | 0.0 | 0.0 | 0.18 | 0.74 | 0.74 | 99 | 1007.3 |
| 20260507002036 | 13 | 136 | 0.0 | 0.0 | 0.48 | 0.74 | 0.74 | 99 | 1007.3 |
| 20260507001532 | 13 | 112 | 0.0 | 0.0 | 0.30 | 0.71 | 0.71 | 99 | 1007.3 |
| 20260507001025 | 13 | 79 | 0.0 | 0.0 | 0.13 | 0.66 | 0.66 | 99 | 1007.3 |
| 20260507000521 | 13 | 71 | 0.0 | 0.0 | 0.30 | 0.66 | 0.66 | 99 | 1007.3 |
| 20260507000016 | 13 | 65 | 0.0 | 0.0 | 0.18 | 0.64 | 0.64 | 99 | 1006.9 |
| 20260506235514 | 13 | 75 | 0.0 | 1.6 | 0.00 | 0.61 | 0.61 | 99 | 1007.3 |
| 20260506235009 | 13 | 101 | 1.6 | 3.2 | 0.00 | 0.61 | 0.61 | 99 | 1006.6 |
| 20260506234507 | 13 | 73 | 0.0 | 3.2 | 0.00 | 0.61 | 0.61 | 99 | 1007.3 |
| 20260506234004 | 13 | 17 | 0.0 | 0.0 | 0.00 | 0.61 | 0.61 | 99 | 1006.9 |
| 20260506233501 | 13 | 55 | 0.0 | 1.6 | 0.00 | 0.61 | 0.61 | 99 | 1006.9 |
| 20260506232957 | 13 | 29 | 0.0 | 0.0 | 0.00 | 0.61 | 0.61 | 99 | 1006.9 |
| 20260506232454 | 13 | 62 | 0.0 | 0.0 | 0.00 | 0.61 | 0.61 | 99 | 1006.9 |
| 20260506231950 | 13 | 195 | 0.0 | 0.0 | 0.00 | 0.61 | 0.61 | 99 | 1007.3 |
| 20260506231447 | 13 | 315 | 0.0 | 0.0 | 0.00 | 0.61 | 0.61 | 99 | 1007.3 |
| 20260506230944 | 13 | 352 | 0.0 | 0.0 | 0.13 | 0.61 | 0.61 | 99 | 1006.9 |
| 20260506230440 | 13 | 356 | 1.6 | 1.6 | 0.13 | 0.61 | 0.61 | 99 | 1007.3 |
| 20260506225937 | 13 | 153 | 0.0 | 1.6 | 0.18 | 0.58 | 0.58 | 99 | 1006.9 |
| 20260506225435 | 13 | 110 | 0.0 | 1.6 | 0.00 | 0.58 | 0.58 | 99 | 1007.3 |
| 20260506224931 | 13 | 78 | 0.0 | 3.2 | 0.13 | 0.56 | 0.56 | 99 | 1007.3 |
| 20260506224429 | 13 | 100 | 0.0 | 0.0 | 0.13 | 0.56 | 0.56 | 99 | 1007.6 |
| 20260506223925 | 13 | 42 | 0.0 | 0.0 | 0.18 | 0.53 | 0.53 | 99 | 1007.3 |
| 20260506223420 | 14 | 54 | 0.0 | 0.0 | 0.36 | 0.53 | 0.53 | 99 | 1007.3 |
| 20260506222918 | 14 | 350 | 0.0 | 0.0 | 0.48 | 0.51 | 0.51 | 99 | 1007.3 |
| 20260506222414 | 14 | 51 | 0.0 | 0.0 | 0.30 | 0.48 | 0.48 | 99 | 1007.6 |
| 20260506221911 | 14 | 93 | 0.0 | 0.0 | 0.30 | 0.43 | 0.43 | 99 | 1007.6 |
| 20260506221408 | 14 | 6 | 0.0 | 0.0 | 0.18 | 0.41 | 0.41 | 99 | 1007.6 |
| 20260506220906 | 14 | 180 | 0.0 | 0.0 | 0.00 | 0.38 | 0.38 | 99 | 1007.6 |
| 20260506220402 | 14 | 187 | 0.0 | 0.0 | 0.13 | 0.38 | 0.38 | 99 | 1007.6 |
| 20260506215858 | 14 | 309 | 0.0 | 1.6 | 0.13 | 0.38 | 0.38 | 99 | 1007.9 |
| 20260506215354 | 14 | 89 | 0.0 | 1.6 | 0.00 | 0.36 | 0.36 | 99 | 1007.9 |
| 20260506214850 | 14 | 100 | 0.0 | 1.6 | 0.00 | 0.36 | 0.36 | 99 | 1007.9 |
| 20260506214347 | 14 | 82 | 0.0 | 0.0 | 0.00 | 0.36 | 0.36 | 99 | 1007.9 |
| 20260506213845 | 14 | 95 | 0.0 | 0.0 | 0.00 | 0.36 | 0.36 | 99 | 1007.9 |
| 20260506213342 | 14 | 101 | 0.0 | 0.0 | 0.00 | 0.36 | 0.36 | 99 | 1008.3 |
| 20260506212839 | 14 | 354 | 0.0 | 0.0 | 0.00 | 0.36 | 0.36 | 99 | 1008.3 |
| 20260506212336 | 14 | 83 | 0.0 | 1.6 | 0.00 | 0.36 | 0.36 | 99 | 1008.3 |
| 20260506211830 | 14 | 50 | 0.0 | 0.0 | 0.00 | 0.36 | 0.36 | 99 | 1008.3 |
| 20260506211327 | 14 | 222 | 0.0 | 1.6 | 0.00 | 0.36 | 0.36 | 99 | 1008.3 |
| 20260506210824 | 14 | 41 | 0.0 | 0.0 | 0.00 | 0.36 | 0.36 | 99 | 1008.3 |
| 20260506210321 | 14 | 5 | 0.0 | 0.0 | 0.00 | 0.36 | 0.36 | 99 | 1008.6 |
| 20260506205818 | 14 | 70 | 0.0 | 0.0 | 0.00 | 0.36 | 0.36 | 99 | 1008.3 |
| 20260506205314 | 14 | 43 | 0.0 | 0.0 | 0.00 | 0.36 | 0.36 | 99 | 1008.3 |
| 20260506204810 | 14 | 73 | 0.0 | 3.2 | 0.00 | 0.36 | 0.36 | 99 | 1008.3 |
| 20260506204308 | 14 | 166 | 0.0 | 0.0 | 0.00 | 0.36 | 0.36 | 99 | 1008.3 |
| 20260506203806 | 14 | 92 | 1.6 | 3.2 | 0.00 | 0.36 | 0.36 | 99 | 1008.3 |
| 20260506203303 | 14 | 86 | 0.0 | 1.6 | 0.00 | 0.36 | 0.36 | 99 | 1008.3 |
| 20260506202800 | 14 | 49 | 1.6 | 3.2 | 0.00 | 0.36 | 0.36 | 99 | 1007.9 |
| 20260506202257 | 14 | 27 | 0.0 | 3.2 | 0.00 | 0.36 | 0.36 | 99 | 1007.9 |
| 20260506201753 | 14 | 33 | 0.0 | 0.0 | 0.18 | 0.36 | 0.36 | 99 | 1008.3 |
| 20260506201250 | 14 | 125 | 0.0 | 0.0 | 0.18 | 0.36 | 0.36 | 99 | 1008.3 |
| 20260506200747 | 14 | 159 | 0.0 | 0.0 | 0.00 | 0.33 | 0.33 | 99 | 1008.3 |
| 20260506200243 | 14 | 311 | 0.0 | 0.0 | 0.00 | 0.33 | 0.33 | 99 | 1008.3 |
| 20260506195739 | 14 | 213 | 0.0 | 0.0 | 0.00 | 0.33 | 0.33 | 99 | 1008.6 |
| 20260506195236 | 14 | 112 | 0.0 | 0.0 | 0.13 | 0.33 | 0.33 | 99 | 1008.6 |
| 20260506194734 | 14 | 72 | 0.0 | 0.0 | 0.13 | 0.33 | 0.33 | 99 | 1008.6 |
| 20260506194230 | 14 | 108 | 0.0 | 1.6 | 0.00 | 0.30 | 0.30 | 99 | 1008.6 |
| 20260506193728 | 14 | 87 | 0.0 | 0.0 | 0.18 | 0.30 | 0.30 | 99 | 1009.0 |
| 20260506193225 | 14 | 357 | 0.0 | 0.0 | 0.18 | 0.30 | 0.30 | 99 | 1009.0 |
| 20260506192721 | 14 | 153 | 0.0 | 0.0 | 0.13 | 0.28 | 0.28 | 99 | 1008.6 |
| 20260506192218 | 14 | 32 | 0.0 | 0.0 | 0.13 | 0.28 | 0.28 | 99 | 1008.6 |
| 20260506191715 | 14 | 28 | 0.0 | 0.0 | 0.00 | 0.25 | 0.25 | 99 | 1008.6 |
| 20260506191211 | 14 | 138 | 0.0 | 0.0 | 0.00 | 0.25 | 0.25 | 99 | 1009.0 |
| 20260506190708 | 14 | 113 | 0.0 | 0.0 | 0.18 | 0.25 | 0.25 | 99 | 1009.0 |
| 20260506190205 | 14 | 97 | 0.0 | 3.2 | 0.18 | 0.25 | 0.25 | 99 | 1009.0 |
| 20260506185702 | 14 | 70 | 0.0 | 1.6 | 0.00 | 0.23 | 0.23 | 99 | 1009.0 |
| 20260506185158 | 14 | 62 | 0.0 | 1.6 | 0.13 | 0.23 | 0.23 | 99 | 1009.0 |
| 20260506184656 | 14 | 83 | 3.2 | 4.8 | 0.30 | 0.23 | 0.23 | 99 | 1009.3 |
| 20260506184153 | 14 | 26 | 0.0 | 0.0 | 0.48 | 0.20 | 0.20 | 99 | 1009.3 |
| 20260506183650 | 14 | 57 | 0.0 | 0.0 | 0.13 | 0.15 | 0.15 | 99 | 1009.0 |
| 20260506183145 | 14 | 312 | 0.0 | 0.0 | 0.18 | 0.13 | 0.13 | 99 | 1009.6 |
| 20260506182643 | 14 | 73 | 0.0 | 0.0 | 0.18 | 0.13 | 0.13 | 99 | 1009.6 |
| 20260506182140 | 15 | 231 | 0.0 | 0.0 | 0.13 | 0.10 | 0.10 | 99 | 1009.6 |
| 20260506181638 | 15 | 103 | 0.0 | 0.0 | 0.13 | 0.10 | 0.10 | 98 | 1009.6 |
| 20260506181135 | 15 | 232 | 0.0 | 1.6 | 0.18 | 0.08 | 0.08 | 98 | 1009.3 |
| 20260506180632 | 15 | 62 | 0.0 | 0.0 | 0.18 | 0.08 | 0.08 | 97 | 1009.3 |
| 20260506180128 | 15 | 57 | 0.0 | 0.0 | 0.13 | 0.05 | 0.05 | 96 | 1009.6 |
| 20260506175624 | 15 | 288 | 0.0 | 0.0 | 0.18 | 0.05 | 0.05 | 94 | 1009.6 |
| 20260506175120 | 15 | 150 | 0.0 | 0.0 | 0.18 | 0.03 | 0.03 | 93 | 1009.3 |
| 20260506174619 | 16 | 247 | 0.0 | 0.0 | 0.00 | 0.00 | 0.00 | 92 | 1009.3 |
| 20260506174116 | 16 | 77 | 0.0 | 1.6 | 0.00 | 0.00 | 0.00 | 92 | 1009.3 |
| 20260506173613 | 16 | 110 | 0.0 | 0.0 | 0.00 | 0.00 | 0.00 | 90 | 1009.3 |
| 20260506173110 | 16 | 227 | 0.0 | 0.0 | 0.00 | 0.00 | 0.00 | 91 | 1009.3 |
| 20260506172608 | 16 | 88 | 0.0 | 0.0 | 0.00 | 0.00 | 0.00 | 89 | 1009.3 |
| 20260506172103 | 16 | 119 | 0.0 | 0.0 | 0.00 | 0.00 | 0.00 | 87 | 1009.6 |
| 20260506171601 | 16 | 201 | 0.0 | 0.0 | 0.00 | 0.00 | 0.00 | 87 | 1009.3 |
| 20260506171058 | 16 | 46 | 0.0 | 0.0 | 0.00 | 0.00 | 0.00 | 87 | 1009.6 |
| 20260506170555 | 16 | 72 | 0.0 | 0.0 | 0.00 | 0.00 | 0.00 | 87 | 1009.6 |
| 20260506170047 | 16 | 218 | 0.0 | 0.0 | 0.00 | 0.00 | 0.00 | 87 | 1009.6 |
| 20260506165545 | 16 | 127 | 0.0 | 0.0 | 0.00 | 0.00 | 0.00 | 88 | 1009.6 |
| 20260506165041 | 16 | 52 | 0.0 | 0.0 | 0.00 | 0.00 | 0.00 | 89 | 1010.0 |
| 20260506164539 | 16 | 69 | 0.0 | 0.0 | 0.00 | 0.00 | 0.00 | 90 | 1010.0 |
| 20260506164036 | 16 | 1 | 0.0 | 0.0 | 0.00 | 0.00 | 0.00 | 89 | 1010.4 |
| 20260506163532 | 16 | 347 | 0.0 | 0.0 | 0.00 | 0.00 | 0.00 | 88 | 1010.8 |
| 20260506163028 | 16 | 70 | 0.0 | 0.0 | 0.00 | 0.00 | 0.00 | 87 | 1010.8 |
| 20260506162524 | 16 | 134 | 0.0 | 0.0 | 0.00 | 0.00 | 0.00 | 86 | 1010.8 |
| 20260506162021 | 16 | 126 | 0.0 | 0.0 | 0.00 | 0.00 | 0.00 | 85 | 1011.1 |
| 20260506161518 | 16 | 60 | 0.0 | 0.0 | 0.00 | 0.00 | 0.00 | 84 | 1011.1 |
| 20260506161010 | 17 | 66 | 0.0 | 0.0 | 0.00 | 0.00 | 0.00 | 84 | 1011.1 |
| 20260506160508 | 17 | 135 | 0.0 | 0.0 | 0.00 | 0.00 | 0.00 | 83 | 1011.4 |
| 20260506160004 | 16 | 202 | 0.0 | 1.6 | 0.00 | 0.00 | 0.00 | 82 | 1011.1 |
| 20260506155502 | 17 | 49 | 0.0 | 0.0 | 0.00 | 0.00 | 0.00 | 82 | 1011.1 |
| 20260506153634 | 17 | 38 | 0.0 | 0.0 | 0.00 | 0.00 | 0.00 | 81 | 1011.4 |
| 20260506153132 | 16 | 339 | 0.0 | 3.2 | 0.00 | 0.00 | 0.00 | 81 | 1011.8 |
| 20260506152628 | 16 | 129 | 0.0 | 1.6 | 0.00 | 0.00 | 0.00 | 81 | 1011.8 |
| 20260506152126 | 16 | 132 | 0.0 | 3.2 | 0.00 | 0.00 | 0.00 | 81 | 1011.4 |
| 20260506151625 | 16 | 80 | 0.0 | 0.0 | 0.00 | 0.00 | 0.00 | 80 | 1011.4 |
| 20260506151121 | 16 | 75 | 0.0 | 0.0 | 0.00 | 0.00 | 0.00 | 81 | 1011.8 |
| 20260506150618 | 16 | 86 | 0.0 | 1.6 | 0.00 | 0.00 | 0.00 | 81 | 1011.4 |
| 20260506150115 | 16 | 185 | 0.0 | 1.6 | 0.00 | 0.00 | 0.00 | 81 | 1011.4 |
| 20260506145612 | 16 | 82 | 0.0 | 0.0 | 0.00 | 0.00 | 0.00 | 81 | 1011.4 |
| 20260506145109 | 16 | 83 | 0.0 | 3.2 | 0.00 | 0.00 | 0.00 | 82 | 1011.4 |
| 20260506144606 | 16 | 66 | 0.0 | 1.6 | 0.00 | 0.00 | 0.00 | 81 | 1011.4 |
| 20260506144102 | 16 | 161 | 0.0 | 0.0 | 0.00 | 0.00 | 0.00 | 81 | 1011.4 |
| 20260506143601 | 15 | 55 | 0.0 | 3.2 | 0.00 | 0.00 | 0.00 | 81 | 1011.4 |
| 20260506143058 | 16 | 112 | 0.0 | 3.2 | 0.00 | 0.00 | 0.00 | 81 | 1011.8 |
| 20260506142556 | 16 | 75 | 0.0 | 1.6 | 0.00 | 0.00 | 0.00 | 82 | 1011.4 |
| 20260506142054 | 16 | 93 | 0.0 | 0.0 | 0.00 | 0.00 | 0.00 | 82 | 1011.4 |
| 20260506141551 | 16 | 161 | 0.0 | 0.0 | 0.00 | 0.00 | 0.00 | 80 | 1011.4 |
| 20260506141050 | 15 | 83 | 0.0 | 0.0 | 0.00 | 0.00 | 0.00 | 81 | 1011.4 |
| 20260506140547 | 16 | 85 | 0.0 | 0.0 | 0.00 | 0.00 | 0.00 | 82 | 1011.4 |
| 20260506140044 | 16 | 75 | 0.0 | 0.0 | 0.00 | 0.00 | 0.00 | 82 | 1011.8 |
| 20260506135541 | 15 | 99 | 0.0 | 0.0 | 0.00 | 0.00 | 0.00 | 83 | 1011.8 |
| 20260506135037 | 15 | 54 | 0.0 | 0.0 | 0.00 | 0.00 | 0.00 | 83 | 1011.8 |
| 20260506134534 | 15 | 88 | 0.0 | 0.0 | 0.00 | 0.00 | 0.00 | 84 | 1011.8 |
| 20260506134029 | 15 | 65 | 0.0 | 1.6 | 0.00 | 0.00 | 0.00 | 83 | 1011.8 |
| 20260506133527 | 15 | 102 | 0.0 | 1.6 | 0.00 | 0.00 | 0.00 | 84 | 1011.8 |
| 20260506133024 | 14 | 79 | 0.0 | 0.0 | 0.00 | 0.00 | 0.00 | 84 | 1012.1 |
| 20260506132521 | 14 | 86 | 0.0 | 0.0 | 0.00 | 0.00 | 0.00 | 85 | 1011.8 |
| 20260506132018 | 14 | 83 | 0.0 | 0.0 | 0.00 | 0.00 | 0.00 | 85 | 1012.1 |
| 20260506131515 | 15 | 75 | 0.0 | 0.0 | 0.00 | 0.00 | 0.00 | 84 | 1011.8 |
| 20260506131012 | 14 | 141 | 0.0 | 0.0 | 0.00 | 0.00 | 0.00 | 85 | 1011.8 |
| 20260506130508 | 14 | 116 | 0.0 | 0.0 | 0.00 | 0.00 | 0.00 | 85 | 1011.8 |
| 20260506130006 | 14 | 62 | 0.0 | 0.0 | 0.00 | 0.00 | 0.00 | 85 | 1011.8 |
| 20260506125504 | 14 | 153 | 0.0 | 0.0 | 0.00 | 0.00 | 0.00 | 85 | 1012.1 |
| 20260506125001 | 14 | 99 | 0.0 | 0.0 | 0.00 | 0.00 | 0.00 | 86 | 1011.8 |
| 20260506124459 | 14 | 6 | 0.0 | 0.0 | 0.00 | 0.00 | 0.00 | 84 | 1011.8 |
| 20260506123957 | 14 | 30 | 0.0 | 0.0 | 0.00 | 0.00 | 0.00 | 84 | 1012.1 |
| 20260506123455 | 15 | 73 | 0.0 | 0.0 | 0.00 | 0.00 | 0.00 | 85 | 1012.1 |
| 20260506122952 | 15 | 34 | 0.0 | 0.0 | 0.00 | 0.00 | 0.00 | 84 | 1012.1 |
| 20260506122449 | 14 | 168 | 0.0 | 0.0 | 0.00 | 0.00 | 0.00 | 85 | 1012.1 |
| 20260506121947 | 14 | 128 | 0.0 | 0.0 | 0.00 | 0.00 | 0.00 | 85 | 1012.5 |
| 20260506121444 | 14 | 79 | 0.0 | 1.6 | 0.00 | 0.00 | 0.00 | 86 | 1012.5 |
| 20260506120940 | 14 | 62 | 0.0 | 3.2 | 0.00 | 0.00 | 0.00 | 86 | 1012.5 |
| 20260506120438 | 14 | 46 | 0.0 | 0.0 | 0.00 | 0.00 | 0.00 | 86 | 1012.1 |
| 20260506115935 | 14 | 218 | 0.0 | 0.0 | 0.00 | 0.00 | 0.00 | 86 | 1012.1 |
| 20260506115433 | 13 | 82 | 0.0 | 0.0 | 0.00 | 0.00 | 0.00 | 87 | 1012.5 |
| 20260506114931 | 13 | 49 | 0.0 | 0.0 | 0.00 | 0.00 | 0.00 | 89 | 1012.8 |
| 20260506114429 | 13 | 64 | 0.0 | 1.6 | 0.00 | 0.00 | 0.00 | 89 | 1012.5 |
| 20260506113927 | 13 | 57 | 0.0 | 3.2 | 0.00 | 0.00 | 0.00 | 90 | 1012.5 |
| 20260506113424 | 13 | 78 | 3.2 | 3.2 | 0.00 | 0.00 | 0.00 | 90 | 1012.5 |
| 20260506112915 | 13 | 147 | 0.0 | 1.6 | 0.00 | 0.00 | 0.00 | 90 | 1012.5 |
| 20260506112413 | 13 | 195 | 0.0 | 0.0 | 0.00 | 0.00 | 0.00 | 90 | 1012.8 |
| 20260506111910 | 13 | 152 | 0.0 | 0.0 | 0.00 | 0.00 | 0.00 | 91 | 1012.5 |
| 20260506111408 | 13 | 96 | 0.0 | 0.0 | 0.00 | 0.00 | 0.00 | 91 | 1012.5 |
| 20260506110905 | 13 | 73 | 0.0 | 0.0 | 0.00 | 0.00 | 0.00 | 91 | 1012.8 |
| 20260506110402 | 13 | 134 | 0.0 | 0.0 | 0.00 | 0.00 | 0.00 | 92 | 1012.5 |
| 20260506105859 | 13 | 103 | 0.0 | 0.0 | 0.00 | 0.00 | 0.00 | 92 | 1012.5 |
| 20260506105355 | 13 | 111 | 0.0 | 0.0 | 0.00 | 0.00 | 0.00 | 93 | 1012.5 |
| 20260506104853 | 13 | 102 | 0.0 | 0.0 | 0.00 | 0.00 | 0.00 | 95 | 1012.8 |
| 20260506104350 | 12 | 235 | 0.0 | 0.0 | 0.00 | 0.00 | 0.00 | 96 | 1012.5 |
| 20260506103848 | 12 | 106 | 0.0 | 0.0 | 0.00 | 0.00 | 0.00 | 96 | 1012.5 |
| 20260506103345 | 12 | 310 | 0.0 | 0.0 | 0.00 | 0.00 | 0.00 | 96 | 1012.5 |
| 20260506102842 | 12 | 178 | 0.0 | 0.0 | 0.00 | 0.00 | 0.00 | 96 | 1012.5 |
| 20260506102340 | 12 | 38 | 0.0 | 0.0 | 0.00 | 0.00 | 0.00 | 96 | 1012.5 |
| 20260506101837 | 12 | 73 | 0.0 | 0.0 | 0.00 | 0.00 | 0.00 | 96 | 1012.5 |
| 20260506101333 | 12 | 214 | 0.0 | 0.0 | 0.00 | 0.00 | 0.00 | 97 | 1012.5 |
| 20260506100831 | 12 | 334 | 0.0 | 0.0 | 0.00 | 0.00 | 0.00 | 97 | 1012.5 |
| 20260506100329 | 11 | 336 | 0.0 | 0.0 | 0.00 | 0.00 | 0.00 | 97 | 1012.5 |
| 20260506095827 | 11 | 325 | 0.0 | 0.0 | 0.00 | 0.00 | 0.00 | 96 | 1012.5 |
| 20260506095324 | 11 | 344 | 0.0 | 0.0 | 0.00 | 0.00 | 0.00 | 96 | 1012.1 |
| 20260506094821 | 11 | 318 | 0.0 | 0.0 | 0.00 | 0.00 | 0.00 | 96 | 1012.5 |
| 20260506094320 | 12 | 283 | 0.0 | 0.0 | 0.00 | 0.00 | 0.00 | 96 | 1012.1 |
| 20260506093818 | 12 | 287 | 0.0 | 0.0 | 0.00 | 0.00 | 0.00 | 95 | 1012.5 |
| 20260506093314 | 12 | 236 | 0.0 | 0.0 | 0.00 | 0.00 | 0.00 | 95 | 1012.5 |
| 20260506092812 | 12 | 280 | 0.0 | 0.0 | 0.00 | 0.00 | 0.00 | 95 | 1012.5 |
| 20260506092310 | 12 | 192 | 0.0 | 0.0 | 0.00 | 0.00 | 0.00 | 96 | 1012.1 |
| 20260506091807 | 12 | 173 | 0.0 | 0.0 | 0.00 | 0.00 | 0.00 | 96 | 1012.1 |
| 20260506091304 | 12 | 206 | 0.0 | 0.0 | 0.00 | 0.00 | 0.00 | 95 | 1012.1 |
| 20260506090802 | 12 | 307 | 0.0 | 0.0 | 0.00 | 0.00 | 0.00 | 95 | 1012.1 |
| 20260506090259 | 12 | 229 | 0.0 | 0.0 | 0.00 | 0.00 | 0.00 | 96 | 1012.1 |
| 20260506085755 | 12 | 215 | 0.0 | 0.0 | 0.00 | 0.00 | 0.00 | 96 | 1012.1 |
| 20260506085252 | 12 | 304 | 0.0 | 0.0 | 0.00 | 0.00 | 0.00 | 95 | 1012.1 |
| 20260506084748 | 12 | 17 | 0.0 | 0.0 | 0.00 | 0.00 | 0.00 | 95 | 1011.8 |
| 20260506084245 | 13 | 338 | 0.0 | 0.0 | 0.00 | 0.00 | 0.00 | 94 | 1012.1 |
| 20260506083742 | 13 | 261 | 0.0 | 0.0 | 0.00 | 0.00 | 0.00 | 94 | 1012.1 |
| 20260506083240 | 13 | 171 | 0.0 | 0.0 | 0.00 | 0.00 | 0.00 | 94 | 1012.1 |
| 20260506082737 | 13 | 220 | 0.0 | 0.0 | 0.00 | 0.00 | 0.00 | 95 | 1012.1 |
| 20260506082232 | 13 | 174 | 0.0 | 0.0 | 0.00 | 0.00 | 0.00 | 95 | 1012.1 |
| 20260506081730 | 13 | 237 | 0.0 | 0.0 | 0.00 | 0.00 | 0.00 | 95 | 1012.1 |
| 20260506081227 | 13 | 283 | 0.0 | 0.0 | 0.00 | 0.00 | 0.00 | 94 | 1012.1 |
| 20260506080726 | 13 | 101 | 0.0 | 0.0 | 0.00 | 0.00 | 0.00 | 93 | 1012.5 |
| 20260506080221 | 13 | 170 | 0.0 | 0.0 | 0.00 | 0.00 | 0.00 | 94 | 1012.1 |
| 20260506073206 | 13 | 271 | 0.0 | 0.0 | 0.00 | 0.00 | 0.00 | 93 | 1011.8 |
| 20260506072702 | 13 | 216 | 0.0 | 0.0 | 0.00 | 0.00 | 0.00 | 94 | 1011.8 |
| 20260506072200 | 12 | 341 | 0.0 | 0.0 | 0.00 | 0.00 | 0.00 | 94 | 1011.4 |
| 20260506071657 | 13 | 352 | 0.0 | 0.0 | 0.00 | 0.00 | 0.00 | 93 | 1011.4 |
| 20260506071155 | 13 | 192 | 0.0 | 0.0 | 0.00 | 0.00 | 0.00 | 94 | 1011.4 |
| 20260506070652 | 13 | 332 | 0.0 | 0.0 | 0.00 | 0.00 | 0.00 | 94 | 1011.4 |
| 20260506070148 | 13 | 302 | 0.0 | 0.0 | 0.00 | 0.00 | 0.00 | 93 | 1011.4 |
| 20260506062126 | 13 | 313 | 0.0 | 0.0 | 0.00 | 0.00 | 0.00 | 92 | 1011.1 |
| 20260506061621 | 13 | 327 | 0.0 | 0.0 | 0.00 | 0.00 | 0.00 | 92 | 1010.8 |
| 20260506061120 | 13 | 286 | 0.0 | 0.0 | 0.00 | 0.00 | 0.00 | 90 | 1011.1 |
| 20260506060618 | 13 | 281 | 0.0 | 0.0 | 0.00 | 0.00 | 0.00 | 89 | 1011.1 |
| 20260506060114 | 14 | 326 | 0.0 | 0.0 | 0.00 | 0.00 | 0.00 | 88 | 1011.1 |
| 20260506051046 | 15 | 282 | 0.0 | 0.0 | 0.00 | 0.00 | 0.00 | 85 | 1011.1 |
| 20260506050544 | 15 | 235 | 0.0 | 0.0 | 0.00 | 0.00 | 0.00 | 86 | 1011.1 |
| 20260506045035 | 15 | 285 | 0.0 | 0.0 | 0.00 | 0.00 | 0.00 | 86 | 1011.1 |
| 20260506044533 | 15 | 68 | 0.0 | 0.0 | 0.00 | 0.00 | 0.00 | 87 | 1011.4 |
| 20260506044029 | 15 | 112 | 0.0 | 0.0 | 0.00 | 0.00 | 0.00 | 86 | 1011.1 |
| 20260506043526 | 15 | 198 | 0.0 | 0.0 | 0.00 | 0.00 | 0.00 | 86 | 1011.1 |
| 20260506043025 | 15 | 203 | 0.0 | 0.0 | 0.00 | 0.00 | 0.00 | 86 | 1011.1 |
| 20260506042523 | 15 | 192 | 0.0 | 0.0 | 0.00 | 0.00 | 0.00 | 87 | 1011.1 |
| 20260506042021 | 15 | 308 | 0.0 | 0.0 | 0.00 | 0.00 | 0.00 | 88 | 1011.4 |
| 20260506041520 | 14 | 20 | 0.0 | 0.0 | 0.00 | 0.00 | 0.00 | 90 | 1011.4 |
| 20260506041016 | 14 | 205 | 0.0 | 0.0 | 0.00 | 0.00 | 0.00 | 91 | 1011.4 |
| 20260506040514 | 14 | 216 | 0.0 | 0.0 | 0.00 | 0.00 | 0.00 | 90 | 1011.4 |
| 20260506040009 | 14 | 261 | 0.0 | 0.0 | 0.00 | 0.00 | 0.00 | 92 | 1011.4 |
| 20260506035507 | 13 | 254 | 0.0 | 0.0 | 0.00 | 0.00 | 0.00 | 92 | 1011.4 |
| 20260506035003 | 13 | 283 | 0.0 | 0.0 | 0.00 | 0.00 | 0.00 | 92 | 1011.4 |
| 20260506034501 | 13 | 296 | 0.0 | 0.0 | 0.00 | 0.00 | 0.00 | 92 | 1011.1 |
| 20260506033958 | 14 | 332 | 0.0 | 0.0 | 0.00 | 0.00 | 0.00 | 91 | 1011.1 |
| 20260506033455 | 14 | 303 | 0.0 | 0.0 | 0.00 | 0.00 | 0.00 | 89 | 1011.1 |
| 20260506032951 | 14 | 264 | 0.0 | 0.0 | 0.00 | 0.00 | 0.00 | 88 | 1010.8 |
| 20260506032449 | 15 | 199 | 0.0 | 0.0 | 0.00 | 0.00 | 0.00 | 86 | 1010.8 |
| 20260506031945 | 14 | 235 | 0.0 | 1.6 | 0.00 | 0.00 | 0.00 | 87 | 1010.8 |
| 20260506031443 | 14 | 226 | 0.0 | 0.0 | 0.00 | 0.00 | 0.00 | 88 | 1011.1 |